Location: Brede
(50.9167°N, 0.6000°E)
Time: 03:25:56
(UTC+00:00)

Cosmos 1538 Rocket - Pass Details

Date: 08 August 2020
Orbit: 752 x 792 km, 74.0° (Epoch: 27 September)

Event Time Altitude Azimuth Distance (km) Brightness Sun altitude
Rises 00:50:19 0° 336° (NNW) 3,218 8.1 -22.2°
Reaches altitude 10° 00:52:42 10° 339° (NNW) 2,288 7.2 -22.2°
Maximum altitude 00:57:53 72° 64° (ENE) 794 4.1 -22.0°
Enters shadow 01:00:04 35° 140° (SE) 1,206 4.7 -21.9°
